This demonstration page uses our WeatherBlox Daily Observations layout. Learn more.

Left ArrowRight Arrow

Hourly Observations for April 2, 2015

Temp ( °F °C ) Dew Point ( °F °C ) Humidity (%) Winds ( mph kmh ) Pressure ( in mb ) Visibility ( mi km ) Precip ( " mm )
12:08 am 00:08 Cloudy with Light Rain 55 13 45 7 67 67 N 22 35 29.74 1007 10 16 0.00 0.00
12:53 am 00:53 Mostly Clear 53 11.7 41 5 64 64 NNE 20 31 29.73 1007 10 16 0.00 0.03
1:53 am 01:53 Mostly Cloudy 52 11.1 37 2.8 57 57 N 15 24 29.75 1008 10 16 0.00 0.00
2:53 am 02:53 Cloudy 51 10.6 36 2.2 56 56 NNE 10 17 29.75 1007 10 16 0.00 0.00
3:53 am 03:53 Cloudy 50 10 35 1.7 57 57 NNE 9 15 29.75 1007 10 16 0.00 0.00
4:45 am 04:45 Clear 48 8.9 36 2.2 63 63 N 9 15 29.80 1009 10 16 0.00 0.00
4:53 am 04:53 Clear 48 8.9 35 1.7 61 61 NNW 8 13 29.78 1008 10 16 0.00 0.00
5:53 am 05:53 Clear 44 6.7 33 0.6 65 65 NNW 10 17 29.81 1010 10 16 0.00 0.00
6:53 am 06:53 Clear 41 5 32 0 70 70 NNW 8 13 29.84 1011 10 16 0.00 0.00
7:53 am 07:53 Sunny 42 5.6 31 -0.6 65 65 NNW 7 11 29.87 1012 10 16 0.00 0.00
8:53 am 08:53 Sunny 49 9.4 33 0.6 55 55 N 9 15 29.90 1012 10 16 0.00 0.00
9:53 am 09:53 Sunny 54 12.2 34 1.1 47 47 NE 10 17 29.91 1013 10 16 0.00 0.00
10:53 am 10:53 Sunny 58 14.4 33 0.6 39 39 ENE 10 17 29.91 1013 10 16 0.00 0.00
11:53 am 11:53 Sunny 59 15 28 -2.2 31 31 NE 8 13 29.91 1013 10 16 0.00 0.00
12:53 pm 12:53 Mostly Cloudy 59 15 29 -1.7 32 32 E 10 17 29.89 1012 10 16 0.00 0.00
1:53 pm 13:53 Sunny 62 16.7 26 -3.3 25 25 VRB 6 9 29.89 1012 10 16 0.00 0.00
2:53 pm 14:53 Mostly Sunny 61 16.1 22 -5.6 22 22 N 12 19 29.88 1012 10 16 0.00 0.00
3:53 pm 15:53 Cloudy 61 16.1 27 -2.8 27 27 N 10 17 29.89 1012 10 16 0.00 0.00
4:53 pm 16:53 Partly Cloudy 62 16.7 28 -2.2 28 28 N 16 26 29.87 1011 10 16 0.00 0.00
5:53 pm 17:53 Mostly Cloudy 58 14.4 28 -2.2 32 32 N 14 22 29.90 1012 10 16 0.00 0.00
6:53 pm 18:53 Cloudy 56 13.3 27 -2.8 33 33 NNE 14 22 29.93 1013 10 16 0.00 0.00
7:53 pm 19:53 Cloudy 54 12.2 29 -1.7 38 38 NNE 8 13 29.94 1014 10 16 0.00 0.00
8:53 pm 20:53 Cloudy 52 11.1 29 -1.7 41 41 N 10 17 29.96 1015 10 16 0.00 0.00
9:53 pm 21:53 Cloudy 51 10.6 26 -3.3 38 38 N 20 31 29.98 1015 10 16 0.00 0.00
10:53 pm 22:53 Cloudy 45 7.2 32 0 61 61 N 31 50 30.04 1017 10 16 0.00 0.00
11:53 pm 23:53 Cloudy with Light Rain 41 5 36 2.2 82 82 N 24 39 30.09 1019 10 16 0.00 0.03

Powered by AerisWeather